Regional Weather Roundup
Issued by NWS

Home | Current Version | Previous Version | Text Only | Print | Product List | Glossary Off
Versions: 1 2 3 4 5 6 7 8 9 10 11 12 13 14 15 16 17 18 19 20 21 22 23 24 25 26 27 28 29 30 31 32 33 34 35 36 37 38 39 40 41 42 43 44 45 46 47 48 49 50

000
ASUS43 KFSD 181602
RWRSD

WEATHER ROUNDUP FOR SOUTH DAKOTA
NATIONAL WEATHER SERVICE SIOUX FALLS SD
1000 AM CST WED JAN 18 2017

NOTE: "FAIR" INDICATES FEW OR NO CLOUDS BELOW 12,000 FEET WITH NO
SIGNIFICANT WEATHER AND/OR OBSTRUCTIONS TO VISIBILITY.


SDZ001>005-009-010-012>017-181700-
NORTHWEST AND NORTH CENTRAL SOUTH DAKOTA

CITY           SKY/WX    TMP DP  RH WIND       PRES   REMARKS
BUFFALO          N/A     38  21  50 W7        29.68S
FAITH            N/A     27  20  75 W5        29.77S WCI  22
MOBRIDGE       SUNNY     20  13  74 E7        29.75F WCI  11
$$

SDZ012>016-024>037-041>051-057-063-072>074-181700-
SOUTHWEST AND SOUTH CENTRAL SOUTH DAKOTA

CITY           SKY/WX    TMP DP  RH WIND       PRES   REMARKS
RAPID CTY ARPT MOSUNNY   28  19  69 CALM      29.76F
PIERRE         SUNNY     19  13  77 S8        29.81F WCI   9
CUSTER         MOSUNNY   45  18  34 W7        29.83S
ELLSWORTH AFB  MOSUNNY   32  23  69 CALM      29.74F
PHILIP         MOSUNNY   25  18  74 W6        29.79F WCI  18
PINE RIDGE     MOSUNNY   32  18  56 W9        29.83S WCI  24
SPEARFISH      FAIR      37  27  65 S3        29.76F
WINNER         FAIR      37  21  52 SW8       29.82S
$$

SDZ004>011-016>023-039-040-181700-
NORTHEAST SOUTH DAKOTA

CITY           SKY/WX    TMP DP  RH WIND       PRES   REMARKS
ABERDEEN       SUNNY     20  13  74 S9        29.82S WCI   9
WATERTOWN      CLOUDY    22  19  89 S5        29.84S WCI  16
BROOKINGS      CLOUDY    26  24  92 S7        29.86R WCI  18
SISSETON         N/A     38  24  57 CALM      29.78F
$$

SDZ017-020-022-023-036>040-048>070-181700-
SOUTHEAST SOUTH DAKOTA

CITY           SKY/WX    TMP DP  RH WIND       PRES   REMARKS
SIOUX FALLS    CLOUDY    29  27  92 S5        29.89F WCI  24
HURON          SUNNY     22  19  89 SE8       29.85S WCI  12
CHAMBERLAIN    SUNNY     29  24  83 CALM      29.84S
MITCHELL       SUNNY     26  23  88 S7        29.87S WCI  18
YANKTON        CLOUDY    34  30  86 CALM      29.89S
$$

ABBREVIATIONS USED IN REMARKS
   TC - TEMPERATURE IN CELSIUS
  WCI - WIND CHILL INDEX
   HX - HEAT INDEX
  VSB - VISIBILITY





USA.gov is the U.S. government's official web portal to all federal, state and local government web resources and services.